Regional Weather Roundup
Issued by NWS Wakefield, VA

Home | Current Version | Previous Version | Graphics & Text | Print | Product List | Glossary On
Versions: 1 2 3 4 5 6 7 8 9 10 11 12 13 14 15 16 17 18 19 20 21 22 23 24 25 26 27 28 29 30 31 32 33 34 35 36 37 38 39 40 41 42 43 44 45 46 47 48 49 50
000
ASUS41 KAKQ 201410
RWRAKQ

REGIONAL WEATHER ROUNDUP
NATIONAL WEATHER SERVICE WAKEFIELD VA
900 AM EST SAT DEC 20 2014

Note: "fair" indicates few or no clouds below 12,000 feet with no
significant weather and/or obstructions to visibility. * = Denotes
station may not report precipitation (e.g., rain,snow,etc.),
thunder or fog.

VAZ042-051-052>054-056-201500-
NORTHERN VIRGINIA

CITY           SKY/WX    TMP DP  RH WIND       PRES   REMARKS
WASH NATIONAL  CLOUDY    34  20  56 N7        30.34R
DULLES         CLOUDY    28  21  75 CALM      30.32R
FORT BELVOIR   CLOUDY    27  24  90 CALM      30.34R
QUANTICO       CLOUDY    30  23  75 CALM      30.35R
FREDERICKSBRG* CLOUDY    30  26  84 CALM      30.32F
STAFFORD*      CLOUDY    26  26 100 CALM      30.37F
WARRENTON      CLOUDY    27  27 100 CALM      30.31F
CULPEPER*      CLOUDY    27  25  93 CALM      30.32R
MANASSAS*      NOT AVBL
LEESBURG*      CLOUDY    30  27  86 CALM      30.33R
WINCHESTER     CLOUDY    28  21  74 CALM      30.29F
FRONT ROYAL*   CLOUDY    27  23  86 CALM      30.29R
LURAY*         CLOUDY    27  27 100 CALM      30.29R
$$

VAZ048-049-060>072-079>083-201500-
CENTRAL AND SOUTH CENTRAL VIRGINIA

CITY           SKY/WX    TMP DP  RH WIND       PRES   REMARKS
RICHMOND       CLOUDY    33  23  66 NE6       30.32S
CHESTERFIELD*  PTSUNNY   34  16  47 CALM      30.33R
PETERSBURG*    PTSUNNY   34  27  75 NE3       30.33R
HANOVER        CLOUDY    30  23  75 W3        30.35R
TAPPAHANNOCK*  CLOUDY    30  22  69 CALM      30.33S
QUINTON*       CLOUDY    32  23  68 NE3       30.32F
CHARLOTTSVILLE CLOUDY    30  24  78 CALM      30.29F
GORDONSVILLE*  CLOUDY    27  24  90 CALM      30.30S
ORANGE*        CLOUDY    28  27  93 CALM      30.32F
LOUISA*        CLOUDY    28  27  93 CALM      30.29S
BUMPASS*       CLOUDY    29  24  82 CALM      30.31S
FARMVILLE*     CLOUDY    32  30  95 CALM      30.31S
CREWE*         CLOUDY    30  27  90 CALM      30.30R
FORT PICKETT*  CLOUDY    31  25  76 NE3       30.31S
CHASE CITY*    CLOUDY    34  27  76 CALM      30.29S
CLARKSVILLE*   CLOUDY    34  27  75 E7        30.29S
SOUTH HILL*    CLOUDY    32  24  71 CALM      30.36S
LAWRENCEVILLE* CLOUDY    32  25  74 CALM      30.30F
EMPORIA*       CLOUDY    32  27  80 N3        30.32F
$$

VAZ088>098-201500-
SOUTHEAST VIRGINIA

CITY           SKY/WX    TMP DP  RH WIND       PRES   REMARKS
NORFOLK        CLOUDY    39  28  64 NE7       30.32R
VIRGINIA BEACH CLOUDY    39  28  64 N5        30.31R
NORFOLK NAVAL  CLOUDY    40  29  64 N9        30.33R
WEST POINT*    CLOUDY    33  26  76 CALM      30.35S
SALUDA*        FAIR      33  25  71 N7        30.32R
NEWPORT NEWS   CLOUDY    37  26  64 N5        30.32R
LANGLEY AFB    CLOUDY    35  27  72 NW7       30.33R
FORT EUSTIS    CLOUDY    35  24  66 N2        30.31R
WILLIAMSBURG*  CLOUDY    36  28  75 N3        30.34S
HR EXEC AP*    CLOUDY    34  30  86 CALM      30.34R
FRANKLIN*      CLOUDY    32  27  80 CALM      30.32F
WAKEFIELD      CLOUDY    34  24  67 N5        30.33R
$$

VAZ020-022-025-037-045-201500-
WEST CENTRAL AND SOUTHWEST VIRGINIA

CITY           SKY/WX    TMP DP  RH WIND       PRES   REMARKS
STAUNTON*      CLOUDY    26  22  85 CALM      30.28F
WAYNESBORO*    CLOUDY    26  22  85 CALM      30.25S
HOT SPRINGS VA CLOUDY    28  20  71 SW10      30.09F WCI  19
LYNCHBURG      CLOUDY    30  25  81 CALM      30.29S
DANVILLE       CLOUDY    34  23  64 NE5       30.31R
SOUTH BOSTON*  CLOUDY    32  25  74 CALM      30.31R
MARTINSVILLE   CLOUDY    33  25  73 CALM      30.31S
ROANOKE        CLOUDY    32  23  69 E5        30.29R
BLACKSBURG     LGT SNOW  30  24  77 E3        30.24S
DUBLIN*        CLOUDY    30  29  95 CALM      30.23R FOG
MARION*        CLOUDY    32  29  88 E5        30.20S
HILLSVILLE*    CLOUDY    32  25  76 S3        30.18R
RICHLANDS*     CLOUDY    30  28  92 CALM      30.15S FOG
WISE*          LGT SNOW  32  32 100 CALM      30.16S
ABINGDON*      CLOUDY    36  33  90 E5        30.17F
$$

MDZ021>025-VAZ099-100-201500-
SOUTHERN MARYLAND AND THE DELMARVA PENINSULA

CITY           SKY/WX    TMP DP  RH WIND       PRES   REMARKS
PATUXENT RIVER CLOUDY    33  21  61 NW9       30.33R
BAY BRIDGE APT   N/A     34  23  64 N8        30.33R
LEONARDTOWN    CLOUDY    30  23  74 CALM      30.34R
DOVER          MOSUNNY   32  26  80 NW3       30.28R
GEORGETOWN     MOSUNNY   31  23  72 NW3       30.31R
EASTON         SUNNY     32  27  80 N6        30.33F
CAMBRIDGE      PTSUNNY   36  27  69 NW6       30.32R
SALISBURY      MOSUNNY   31  25  78 CALM      30.30S
OCEAN CITY     SUNNY     29  24  82 NW6       30.31R
WALLOPS ISLAND MOSUNNY   30  24  78 N6        30.32S
ACCOMACK*      PTSUNNY   32  27  80 N5        30.32R
$$

NCZ012>017-030>032-201500-
NORTH CENTRAL AND EASTERN NORTH CAROLINA

CITY           SKY/WX    TMP DP  RH WIND       PRES   REMARKS
ROANOKE RAPIDS CLOUDY    32  27  80 NE5       30.31S
RALEIGH        LGT SNOW  34  27  75 NE6       30.29S FOG
ELIZABETH CITY CLOUDY    40  30  67 NW5       30.32R
AHOSKIE*       CLOUDY    32  27  80 N3        30.32S
EDENTON*         N/A     35  31  84 N5        30.31S
CURRITUCK*     CLOUDY    35  29  79 NW3       30.32R
KILL DEVIL HLS CLOUDY    41  35  79 NW3       30.29R
MANTEO         CLOUDY    41  35  80 N6        30.31R
CAPE HATTERAS  CLOUDY    43  35  73 VRB5      30.29R
TARBORO*       CLOUDY    36  28  75 NE3       30.31F
GOLDSBORO      MIX PCPN  37  36  93 NE3       30.27R
WASHINGTON     CLOUDY    35  31  85 NE7       30.30S
GREENVILLE     CLOUDY    36  32  87 NE6       30.30S
NEW BERN       LGT RAIN  41  35  79 N6        30.29R
WILMINGTON     LGT RAIN  43  40  89 NE8       30.24R
$$

VAZ048-201500-
ELSEWHERE

CITY           SKY/WX    TMP DP  RH WIND       PRES   REMARKS
HARRISBURG PA  CLOUDY    31  20  63 W6        30.30F
BALTIMORE      CLOUDY    29  21  72 CALM      30.32R
ANNAPOLIS      CLOUDY    32  23  69 NW8       30.33R
ANDREWS AFB    SUNNY     25  20  82 N5        30.32R
PHILADELPHIA   CLOUDY    33  21  61 NW6       30.32R
HENDERSON NC   CLOUDY    33  24  69 NE5       30.29S
GREENSBORO     FLURRIES  34  28  79 N5        30.27R
ROCKY MOUNT    CLOUDY    35  27  72 NE7       30.30S
$$

VAZ100-201500-
MARINE

STATION/POSITION TIME  TEMP    WIND        PRES    WAVE   SWELL
                       AIR SEA DIR/SP/G            HT/PER HT/PER
                 (UTC) (F)     (DEG/KT/KT) (MB)    (FT/S) (FT/S)
CAPE MAY NJ      1400   33 43   60/  2/  4 1025.6R
LEWES DE         1400   31 42  290/  7/  9 1025.7F
15NM E FENWICK I 1400   36 46              1025.7R   2/ 4
OCEAN-CITY-INLET 1400   31 44  350/  6/  7 1025.7S
WACHAPREAGUE VA  1400   33 41  360/  6/ 10 1026.0R
THOMAS POINT MD  1400   31 40  320/  4/  5 1027.8R
COVE POINT MD    1400   32     350/ 10/ 13 1026.8R
SOLOMONS ISLAND  1400      42                N/A
BISHOPS HEAD MD  1400   32 35  300/  3/  4 1026.0R
CAMBRIDGE MD     1400   33 40  360/  8/ 10 1025.5F
LEWISETTA VA     1400   32 40  290/  5/  7 1027.1R
RAPPAHANNOCK LGT 1400          350/ 10/ 11 1027.1R
YORK RVR RNG VA  1400   36     350/ 12/ 13 1026.2R
YORKTOWN VA      1400   34 45  330/  8/  9 1026.6S
DOMINION TERM VA 1400   36     330/  6/  8 1026.9R
KIPTOPEKE VA     1400      49   10/  4/  7   N/A
CHES BAY BRIDGE  1400   38 46   10/  8/  9 1026.0R
CAPE HENRY VA    1400   38      30/  6/ 10 1025.1R
CHESAPEAKE LGHT  1300   38      10/ 11/ 12 1025.8F
WILLOUBY STN VA  1400   36     340/  9/ 10 1027.0R
S CRANEY ISL VA  1400          350/  4/  6 1026.7R
CAPE HENRY BUOY  1300      48                N/A     2/ 5
CAPE CHARLES BUO 1400      48                N/A     2/ 5   2/11
64NM E OF VA BCH 1400   43 54  350/  8/ 12 1024.8R   2/ 5   2/ 5
DUCK PIER NC     1400   40 46  310/ 10/ 11 1025.2R
44100 DUCK FRF   1400      52                N/A     3/ 5
44056 DUCK FRF   1400      46                N/A     2/ 5
OREGON INLET NC  1400   42 49  310/  5/  7 1025.7R
HATTERAS NC      1400   44 51   10/ 11/ 12 1025.4R
DIAMOND SHLS NC  1400   48                 1025.3R   3/ 7
CAPE LOOKOUT NC  1300   45      20/ 10/ 13 1023.8F
$$



USA.gov is the U.S. government's official web portal to all federal, state and local government web resources and services.